sat.trackr.live / text

‹ back to catalog

2025-313C

NORAD 67250 · 2025-313C

PAYLOAD ACTIVE UNKNOWN

§ Identity

Operator
Country
TBD
Launch date
2025-12-28
Launch site
VOSTO
Launch vehicle
Mass (kg)
RCS (m²)

External: N2YO · Heavens-Above · Gunter

§ Orbital elements

Epoch: 2026-09-20T21:32:45.159360Z

Period
96.63 min
Inclination
97.6094°
Eccentricity
0.0147311
Mean motion
14.90201888 rev/d
Perigee alt
494.5 km
Apogee alt
700.1 km
Semi-major
6,975.4 km
B*
3.4113e-4
RAAN
331.0635°
Arg perigee
19.5173°
Mean anomaly
341.1603°
Rev number
3,960

§ Raw data

2025-313C1 67250U 25313C   26263.89774490  .00004000  00000+0  34113-3 0  99992 67250  97.6094 331.0635 0147311  19.5173 341.1603 14.90201888 39608

JSON: /api/v1/satellites/67250 · /tle

For live sub-satellite position, see the globe view (requires WebGL).

§ Visibility from observer

Set your observer location to see the next 7 days of passes ≥ 10°. The values pass through the URL so the page stays shareable.

No JS? Fill the form by hand. The geolocation button needs JavaScript.